Location: Forest
(37.3641°N, 79.2902°W)
Time: 11:47:29
(UTC+00:00)

BlueWalker 3 - Visible Passes

Search period start: 11 October 2024 00:00
Search period end: 21 October 2024 00:00
Orbit: 472 x 485 km, 53.2° (Epoch: 10 October)

Date Brightness Start Highest point End Pass type
(mag) Time Alt. Az. Time Alt. Az. Time Alt. Az.
17 Oct 4.4 10:37:01 10° N 10:38:58 14° NNE 10:40:54 10° NE visible
18 Oct 4.5 10:08:34 10° N 10:10:17 13° NNE 10:11:58 10° NE visible
19 Oct 4.6 09:40:07 10° N 09:41:33 12° NNE 09:42:57 10° NE visible
20 Oct 4.7 09:12:49 11° NNE 09:12:49 11° NNE 09:13:51 10° NE visible
20 Oct 2.8 10:47:56 10° NW 10:51:30 45° NE 10:55:03 10° ESE visible
